Regional Weather Roundup
Issued by NWS Cleveland, OH

Home | Current Version | Previous Version | Graphics & Text | Print | Product List | Glossary On
Versions: 1 2 3 4 5 6 7 8 9 10 11 12 13 14 15 16 17 18 19 20 21 22 23 24 25 26 27 28 29 30 31 32 33 34 35 36 37 38 39 40 41 42 43 44 45 46 47 48 49 50
000
ASUS41 KCLE 151002
RWRCLE
OHIO REGIONAL WEATHER ROUNDUP
NATIONAL WEATHER SERVICE CLEVELAND, OH
500 AM EST FRI DEC 15 2017

NOTE: "FAIR" INDICATES FEW OR NO CLOUDS BELOW 12,000 FEET WITH NO
SIGNIFICANT WEATHER AND/OR OBSTRUCTIONS TO VISIBILITY.

OHZ001>008-015>018-024>027-034-035-043-044-151100-
   NORTHWEST OHIO

CITY           SKY/WX    TMP DP  RH WIND       PRES   REMARKS
DEFIANCE       CLOUDY    21  13  71 S7        29.98F WCI  12
FINDLAY        CLOUDY    20  11  68 S9        29.98F WCI   9
TOLEDO EXPRESS CLOUDY    19  12  74 S7        29.97F WCI  10
TOLEDO EXEC    CLOUDY    20  10  65 S8        29.98F WCI  10
LIMA           CLOUDY    20  14  77 S8        29.98F WCI  10
$$

OHZ009>014-019>023-028>033-038-089-151100-
   NORTHEAST OHIO

CITY           SKY/WX    TMP DP  RH WIND       PRES   REMARKS
CLE-HOPKINS    MOCLDY     8   3  80 S5        30.02F WCI   0
CLE-LAKEFRONT  PTCLDY    13   6  74 SE12      29.99F WCI  -1
CUY CO. ARPT   NOT AVBL
LORAIN-ELYRIA  PTCLDY     1  -5  75 SW5       30.00F WCI  -9
ASHTABULA      CLOUDY     6   2  83 S5        29.98F WCI  -3
AKRON-CANTON   CLOUDY    10   4  76 SW3       29.98F
WOOSTER        PTCLDY     1  -1  91 CALM      29.99F FOG
MANSFIELD      CLOUDY     9   6  88 S6        29.97F WCI  -1
YOUNGSTOWN     CLOUDY     9   6  88 S5        29.97F WCI   1
$$

OHZ042-051>053-060>062-070>072-077>081-151100-
  SOUTHWEST OHIO

CITY           SKY/WX    TMP DP  RH WIND       PRES   REMARKS
CINC-COVINGTON CLOUDY    22  18  85 SW3       30.02F
CINC-LUNKEN    CLOUDY    24  18  77 CALM      30.07F
HAMILTON       CLOUDY    19  17  92 CALM      30.06S
DAYTON         CLOUDY    20  17  88 SW6       30.01F WCI  12
WRIGHT-PAT AFB CLOUDY    19  17  93 CALM      30.02S
DAYTON GENERAL CLOUDY    20  16  84 S3        30.01F
WILMINGTON     PTCLDY    21  18  88 CALM      30.01S
$$

OHZ036-037-039>041-045>050-054>059-063>069-073>076-082>088-151100-
  CENTRAL AND SOUTHEAST OHIO

CITY           SKY/WX    TMP DP  RH WIND       PRES   REMARKS
COLUMBUS       CLOUDY    20  16  84 CALM      30.02F
OSU AIRPORT    PTCLDY    18  15  88 CALM      30.01F
BOLTON FIELD   PTCLDY    18  16  92 CALM      30.02F
RICKENBACK AFB PTCLDY    20  17  90 CALM      30.02F
NEWARK         CLOUDY    18  15  88 CALM      30.01F
MARION         NOT AVBL
LANCASTER      CLOUDY    20  17  88 CALM      30.02F
ZANESVILLE     CLOUDY    20  15  81 CALM      30.01F
NEW PHILLY     NOT AVBL
$$




USA.gov is the U.S. government's official web portal to all federal, state and local government web resources and services.